Evanston, WY

12:07 AM MDT on June 26, 2017 (GMT -0600)
Evanston-Uinta County Burns

Weather History for KEVW - April, 2013

Change the Weather History Date:

Saturday, April 20, 2013

  Actual Average Record
Temperature  
Mean Temperature 39 °F 40 °F  
Max Temperature 46 °F 51 °F 64 °F (2016)
Min Temperature 32 °F 30 °F 19 °F (2002)
Degree Days  
Heating Degree Days 26 24  
Month to date heating degree days 617 542  
Since 1 July heating degree days 7208 7610  
Cooling Degree Days 0 0  
Month to date cooling degree days 0 0  
Year to date cooling degree days 0 0  
Moisture  
Dew Point 30 °F    
Average Humidity 75    
Maximum Humidity 100    
Minimum Humidity 49    
Precipitation  
Precipitation 0.03 in 0.02 in 0.03 in (2002)
Month to date precipitation 0.92 0.71  
Year to date precipitation 1.80 2.72  
Sea Level Pressure  
Sea Level Pressure 30.01 in    
Wind  
Wind Speed 14 mph (WSW)    
Max Wind Speed 22 mph    
Max Gust Speed 32 mph    
Visibility 6 miles    
Events Fog , Snow    
T = Trace of Precipitation, MM = Missing Value Source: NWS Daily Summary

Daily Weather History Graph

Daily Weather History Graph

Search for Another Location

Airport or City:

Trip Planner

Search our weather history database for the weather conditions in past years. The results will help you decide how hot, cold, wet, or windy it might be!

Date:

Astronomy

Apr. 20, 2013 Rise Set
Actual Time 6:36 AM MDT 8:10 PM MDT
Civil Twilight 6:07 AM MDT 8:39 PM MDT
Nautical Twilight 5:32 AM MDT 9:14 PM MDT
Astronomical Twilight 4:55 AM MDT 9:51 PM MDT
Moon 2:54 PM MDT (4/20) 3:31 AM MDT (4/20)
Length of Visible Light 14h 31m
Length of Day
13h 33m
Waxing Gibbous, 71% of the Moon is Illuminated
Apr 20
Waxing Gibbous
Apr 25
Full
May 2
Last Quarter
May 9
New
May 17
First Quarter

Hourly Weather History & Observations

Time (MDT) Temp. Windchill Dew Point Humidity Pressure Visibility Wind Dir Wind Speed Gust Speed Precip Events Conditions
12:00 AM 33.8 °F 23.5 °F 32.0 °F 93% 29.99 in 4.0 mi SW 16.1 mph - N/A   Overcast
12:06 AM 33.8 °F 23.9 °F 32.0 °F 93% 29.99 in 1.5 mi SW 15.0 mph - N/A   Overcast
12:16 AM 33.8 °F 23.9 °F 32.0 °F 93% 29.99 in 0.5 mi SW 15.0 mph - N/A Fog Fog
12:53 AM 33.1 °F 23.4 °F 32.0 °F 96% 29.94 in 0.2 mi SW 13.8 mph - N/A Fog Fog
1:53 AM 33.1 °F 23.9 °F 32.0 °F 96% 29.94 in 0.5 mi SW 12.7 mph - 0.00 in Fog , Snow Light Snow
2:19 AM 33.8 °F 24.3 °F 32.0 °F 93% 29.99 in 1.0 mi SW 13.8 mph - 0.00 in   Mist
2:27 AM 33.8 °F 23.9 °F 32.0 °F 93% 29.98 in 2.0 mi SW 15.0 mph - 0.00 in   Overcast
2:42 AM 33.8 °F 24.8 °F 32.0 °F 93% 29.98 in 1.8 mi SW 12.7 mph - 0.00 in Snow Light Snow
2:48 AM 33.8 °F 25.3 °F 32.0 °F 93% 29.98 in 1.0 mi SW 11.5 mph - 0.00 in Snow Light Snow
2:53 AM 33.1 °F 24.4 °F 32.0 °F 96% 29.93 in 0.8 mi SW 11.5 mph - 0.00 in Snow Light Snow
3:05 AM 33.8 °F 25.3 °F 32.0 °F 93% 29.98 in 1.2 mi SW 11.5 mph - 0.00 in Snow Light Snow
3:18 AM 33.8 °F 26.4 °F 32.0 °F 93% 29.98 in 0.5 mi WSW 9.2 mph - 0.00 in Fog , Snow Snow
3:26 AM 33.8 °F 27.0 °F 32.0 °F 93% 29.98 in 1.8 mi WSW 8.1 mph - 0.00 in Snow Light Snow
3:28 AM 33.8 °F 26.4 °F 32.0 °F 93% 29.98 in 3.0 mi WSW 9.2 mph - 0.00 in Snow Light Snow
3:36 AM 33.8 °F 25.3 °F 32.0 °F 93% 29.98 in 5.0 mi SW 11.5 mph - 0.00 in Snow Light Snow
3:43 AM 33.8 °F 26.4 °F 32.0 °F 93% 29.98 in 9.0 mi SW 9.2 mph - 0.00 in   Overcast
3:49 AM 33.8 °F 25.8 °F 32.0 °F 93% 29.98 in 1.2 mi SW 10.4 mph - 0.00 in   Overcast
3:53 AM 33.1 °F 24.9 °F 32.0 °F 96% 29.94 in 0.5 mi SW 10.4 mph - 0.00 in Fog Fog
4:03 AM 33.8 °F 26.4 °F 32.0 °F 93% 29.98 in 0.2 mi SW 9.2 mph - N/A Fog Fog
4:11 AM 33.8 °F 26.4 °F 32.0 °F 93% 29.98 in 0.2 mi WSW 9.2 mph - N/A Fog Fog
4:19 AM 33.8 °F 26.4 °F 32.0 °F 93% 29.98 in 0.2 mi WSW 9.2 mph - N/A Fog Fog
4:53 AM 32.0 °F 24.2 °F 32.0 °F 100% 29.95 in 0.2 mi WSW 9.2 mph - 0.00 in Fog , Snow Light Snow
5:28 AM 32.0 °F 24.2 °F 32.0 °F 100% 29.99 in 0.2 mi WSW 9.2 mph - 0.00 in Fog Fog
5:36 AM 32.0 °F 23.6 °F 32.0 °F 100% 30.00 in 0.5 mi SW 10.4 mph - 0.00 in Fog , Snow Light Snow
5:44 AM 32.0 °F 24.2 °F 32.0 °F 100% 30.00 in 0.5 mi SW 9.2 mph - 0.00 in Fog , Snow Light Snow
5:50 AM 32.0 °F 24.2 °F 30.2 °F 93% 30.00 in 1.8 mi WSW 9.2 mph - 0.00 in Snow Light Snow
5:53 AM 32.0 °F 23.6 °F 30.9 °F 96% 29.97 in 5.0 mi WSW 10.4 mph - 0.00 in Snow Light Snow
6:05 AM 32.0 °F 24.8 °F 30.2 °F 93% 30.00 in 6.0 mi WSW 8.1 mph - 0.00 in Snow Light Snow
6:21 AM 32.0 °F 24.2 °F 30.2 °F 93% 30.01 in 4.0 mi WSW 9.2 mph - 0.00 in Snow Light Snow
6:29 AM 32.0 °F 24.2 °F 30.2 °F 93% 30.01 in 1.8 mi WSW 9.2 mph - 0.00 in Snow Light Snow
6:53 AM 32.0 °F 24.8 °F 30.9 °F 96% 29.98 in 1.5 mi WSW 8.1 mph - 0.00 in Snow Light Snow
6:58 AM 32.0 °F 24.2 °F 30.2 °F 93% 30.01 in 2.0 mi WSW 9.2 mph - 0.00 in Snow Light Snow
7:17 AM 32.0 °F 23.6 °F 30.2 °F 93% 30.02 in 4.0 mi SW 10.4 mph - 0.00 in Snow Light Snow
7:44 AM 32.0 °F 23.0 °F 32.0 °F 100% 30.03 in 10.0 mi WSW 11.5 mph - 0.00 in   Overcast
7:53 AM 32.0 °F 23.6 °F 32.0 °F 100% 30.00 in 10.0 mi WSW 10.4 mph - 0.00 in   Overcast
8:05 AM 33.8 °F 24.8 °F 32.0 °F 93% 30.04 in 10.0 mi WSW 12.7 mph - N/A   Overcast
8:24 AM 33.8 °F 25.3 °F 32.0 °F 93% 30.04 in 10.0 mi WSW 11.5 mph - N/A   Overcast
8:53 AM 34.0 °F 26.6 °F 33.1 °F 96% 30.02 in 10.0 mi WSW 9.2 mph - 0.02 in   Overcast
9:32 AM 35.6 °F 27.5 °F 33.8 °F 93% 30.06 in 9.0 mi West 11.5 mph - 0.01 in   Overcast
9:53 AM 36.0 °F 29.0 °F 33.1 °F 89% 30.02 in 10.0 mi West 9.2 mph - 0.01 in   Overcast
10:43 AM 39.2 °F 30.2 °F 28.4 °F 65% 30.06 in 10.0 mi West 17.3 mph 24.2 mph N/A   Overcast
10:53 AM 39.9 °F 32.5 °F 28.9 °F 65% 30.02 in 10.0 mi WNW 12.7 mph 19.6 mph N/A   Overcast
11:22 AM 39.2 °F 31.6 °F 30.2 °F 70% 30.07 in 10.0 mi West 12.7 mph 18.4 mph N/A   Overcast
11:29 AM 41.0 °F 33.9 °F 30.2 °F 65% 30.07 in 10.0 mi West 12.7 mph 19.6 mph N/A   Overcast
11:53 AM 39.9 °F 30.5 °F 30.0 °F 68% 30.01 in 10.0 mi West 19.6 mph 24.2 mph N/A   Overcast
12:02 PM 42.8 °F 35.1 °F 30.2 °F 61% 30.07 in 10.0 mi West 16.1 mph 24.2 mph N/A   Mostly Cloudy
12:53 PM 44.1 °F 35.7 °F 27.0 °F 51% 29.99 in 10.0 mi WNW 20.7 mph 29.9 mph N/A   Overcast
1:53 PM 44.1 °F 35.9 °F 27.0 °F 51% 29.99 in 10.0 mi WNW 19.6 mph 28.8 mph N/A   Overcast
2:53 PM 42.1 °F 33.6 °F 27.0 °F 55% 30.01 in 10.0 mi West 18.4 mph - N/A   Overcast
3:53 PM 44.1 °F 35.9 °F 27.0 °F 51% 30.00 in 10.0 mi West 19.6 mph - N/A   Overcast
4:35 PM 41.0 °F 32.8 °F 28.4 °F 61% 30.07 in 10.0 mi West 16.1 mph 25.3 mph N/A   Overcast
4:48 PM 42.8 °F 33.8 °F 26.6 °F 53% 30.07 in 10.0 mi West 21.9 mph 27.6 mph N/A   Overcast
4:53 PM 41.0 °F 32.2 °F 27.0 °F 57% 30.02 in 10.0 mi West 18.4 mph 25.3 mph N/A   Overcast
5:53 PM 41.0 °F 32.2 °F 28.0 °F 60% 30.03 in 10.0 mi WSW 18.4 mph 26.5 mph N/A   Overcast
6:53 PM 41.0 °F 30.7 °F 30.0 °F 65% 30.03 in 10.0 mi WSW 25.3 mph 33.4 mph N/A   Scattered Clouds
7:53 PM 39.0 °F 29.9 °F 27.0 °F 62% 30.06 in 10.0 mi WSW 17.3 mph - N/A   Overcast
8:53 PM 37.0 °F 27.7 °F 26.1 °F 65% 30.07 in 10.0 mi WSW 16.1 mph - N/A   Mostly Cloudy
9:53 PM 34.0 °F 25.5 °F 25.0 °F 70% 30.11 in 10.0 mi WSW 11.5 mph - N/A   Clear
10:53 PM 32.0 °F 23.6 °F 25.0 °F 75% 30.11 in 10.0 mi SSW 10.4 mph - N/A   Partly Cloudy
11:53 PM 32.0 °F 24.8 °F 25.0 °F 75% 30.11 in 10.0 mi SW 8.1 mph - N/A   Partly Cloudy